Home > Weather > U.S.A. > Little Rock > Past weeks

Flag for U.S.A. Weather past 2 weeks in Little Rock, Arkansas, U.S.A.

43 °F

Mostly cloudy.

Feels Like: 37 °F
Forecast: 40 / 51 °F
Wind: 10 mph from Northwest

Location: Adams Field

Current Time: Dec 1, 2015 at 7:27:24 AM

Latest Report: Dec 1, 2015 at 6:53 AM

Visibility: 10 mi

Pressure: 30.07 "Hg

Humidity: 82%

Dew point: 38 °F

Location of Little RockLocation

Historic Weather in Little Rock — Graph


Little Rock temperature yesterday

Maximum temperature yesterday: 52 °F (at 3:53 PM)
Minimum temperature yesterday: 46 °F (at 12:53 AM)
Average temperature yesterday: 49 °F

Past Weeks' High & Low Weather Summary

High74 °F (Nov 26, 12:53 PM)97% (Nov 16, 7:58 PM)30.37 "Hg (Nov 16, 7:58 PM)
Low30 °F (Nov 22, 6:53 AM)25% (Nov 24, 1:53 PM)29.51 "Hg (Nov 17, 1:53 PM)
Average52 °F75%30.13 "Hg
* Reported Nov 16 5:53 AM — Dec 1 5:53 AM, Little Rock, Weather by CustomWeather, © 2015

Note: Actual official high and low records may vary slightly from our data, if they occured in-between our weather recording intervals... More about our weather records


Little Rock weather history for previous 24 hours

Time TempWeatherWind HumidityBarometerVisibility
5:53 AM
Tue, Dec 1
44 °FPassing clouds.7 mph82%30.06 "Hg10 mi
4:53 AM45 °FPassing clouds.7 mph80%30.05 "Hg10 mi
3:53 AM47 °FMostly cloudy.12 mph83%30.04 "Hg10 mi
2:53 AM49 °FMostly cloudy.14 mph80%30.04 "Hg10 mi
1:53 AM49 °FMostly cloudy.12 mph86%30.01 "Hg10 mi
12:53 AM50 °FOvercast.8 mph86%30.01 "Hg7 mi
11:53 PM
Mon, Nov 30
52 °FOvercast.7 mph89%29.99 "Hg7 mi
10:53 PM52 °FFog.5 mph93%29.99 "Hg2 mi
9:53 PM52 °FOvercast.5 mph93%29.98 "Hg10 mi
8:53 PM52 °FLight rain. Mostly cloudy.6 mph93%30.01 "Hg10 mi
7:53 PM52 °FLight rain. Low clouds.5 mph93%29.98 "Hg10 mi
7:00 PM52 °FLow clouds.3 mph93%29.98 "Hg10 mi
5:53 PM52 °FOvercast.5 mph93%29.98 "Hg10 mi
4:53 PM52 °FDrizzle. Low clouds.No wind93%29.96 "Hg10 mi
3:53 PM52 °FDrizzle. Fog.5 mph93%29.96 "Hg1 mi
2:53 PM51 °FFog.3 mph92%29.97 "Hg2 mi
1:53 PM51 °FFog.No wind92%29.97 "Hg5 mi
12:53 PM50 °FFog.3 mph93%29.98 "Hg3 mi
11:53 AM49 °FDrizzle. Fog.5 mph93%30.01 "Hg2 mi
10:53 AM49 °FLight rain. Fog.3 mph90%30.04 "Hg3 mi
9:53 AM48 °FLight rain. Fog.No wind93%30.07 "Hg2 mi
8:53 AM48 °FLight rain. Fog.No wind93%30.06 "Hg1 mi
7:53 AM47 °FLight rain. Fog.3 mph93%30.05 "Hg2 mi
Weather by CustomWeather, © 2015

See weather overviewHow to use our weather pages